TimeMDT,TemperatureF,Dew PointF,Humidity,Sea Level PressureIn,VisibilityMPH,Wind Direction,Wind SpeedMPH,Gust SpeedMPH,PrecipitationIn,Events,Conditions,WindDirDegrees,DateUTC
12:56 AM,26.1,15.1,63,30.02,-9999.0,Calm,Calm,-,N/A,,Unknown,0,2012-10-11 06:56:00
1:56 AM,26.1,15.1,63,30.01,-9999.0,NW,3.5,-,N/A,,Unknown,310,2012-10-11 07:56:00
2:56 AM,26.1,16.0,66,30.01,-9999.0,Calm,Calm,-,N/A,,Unknown,0,2012-10-11 08:56:00
3:56 AM,28.0,17.1,63,30.01,-9999.0,Calm,Calm,-,N/A,,Unknown,0,2012-10-11 09:56:00
4:56 AM,27.0,18.0,69,30.03,-9999.0,Calm,Calm,-,N/A,,Unknown,0,2012-10-11 10:56:00
5:56 AM,27.0,18.0,69,30.04,-9999.0,NW,3.5,-,N/A,,Unknown,320,2012-10-11 11:56:00
6:56 AM,26.1,18.0,71,30.10,-9999.0,Calm,Calm,-,N/A,,Unknown,0,2012-10-11 12:56:00
7:56 AM,26.1,18.0,71,30.17,-9999.0,Calm,Calm,-,N/A,,Unknown,0,2012-10-11 13:56:00
8:56 AM,32.0,19.9,61,30.17,-9999.0,Calm,Calm,-,N/A,,Unknown,0,2012-10-11 14:56:00
9:56 AM,42.1,30.0,62,30.14,-9999.0,ESE,3.5,-,N/A,,Unknown,120,2012-10-11 15:56:00
10:56 AM,46.0,30.0,54,30.14,-9999.0,Variable,3.5,-,N/A,,Unknown,0,2012-10-11 16:56:00
11:56 AM,53.1,28.9,40,30.09,-9999.0,Variable,5.8,-,N/A,,Unknown,0,2012-10-11 17:56:00
12:56 PM,57.0,19.9,24,30.06,-9999.0,Variable,5.8,-,N/A,,Unknown,0,2012-10-11 18:56:00
1:56 PM,59.0,19.0,21,30.02,-9999.0,Variable,5.8,17.3,N/A,,Unknown,0,2012-10-11 19:56:00
2:56 PM,60.1,17.1,19,30.01,-9999.0,SW,8.1,16.1,N/A,,Unknown,230,2012-10-11 20:56:00
3:56 PM,60.1,19.0,20,30.01,-9999.0,Variable,5.8,-,N/A,,Unknown,0,2012-10-11 21:56:00
4:56 PM,59.0,18.0,20,30.02,-9999.0,Variable,4.6,-,N/A,,Unknown,0,2012-10-11 22:56:00
5:56 PM,55.0,17.1,23,30.04,-9999.0,Variable,5.8,-,N/A,,Unknown,0,2012-10-11 23:56:00
6:56 PM,44.1,19.0,37,30.11,-9999.0,Calm,Calm,-,N/A,,Unknown,0,2012-10-12 00:56:00
7:56 PM,37.0,17.1,44,30.14,-9999.0,NW,3.5,-,N/A,,Unknown,310,2012-10-12 01:56:00
8:56 PM,34.0,16.0,48,30.14,-9999.0,Calm,Calm,-,N/A,,Unknown,0,2012-10-12 02:56:00
9:56 PM,30.9,16.0,54,30.10,-9999.0,WNW,3.5,-,N/A,,Unknown,300,2012-10-12 03:56:00
10:56 PM,30.0,16.0,56,30.09,-9999.0,NW,3.5,-,N/A,,Unknown,310,2012-10-12 04:56:00
11:56 PM,28.9,16.0,58,30.06,-9999.0,NW,3.5,-,N/A,,Unknown,320,2012-10-12 05:56:00